EN

Hourly Weather Ozerne

Today, 2 March, Tuesday

Time Temperature Precipitation Wind Pressure Humidity
00:00 0°C° 0 mm 4 mps 772 mmHg 71%
01:00 0°C° 0 mm 4 mps 773 mmHg 72%
02:00 -1°C° 0 mm 4 mps 773 mmHg 72%
03:00 0°C° 0 mm 3 mps 773 mmHg 77%
04:00 0°C° 0 mm 3 mps 772 mmHg 81%
05:00 -1°C° 0 mm 3 mps 772 mmHg 85%
06:00 0°C° 0 mm 3 mps 772 mmHg 82%
07:00 0°C° 0 mm 3 mps 772 mmHg 78%
08:00 0°C° 0 mm 3 mps 773 mmHg 75%
09:00 +1°C° 0 mm 3 mps 772 mmHg 68%
10:00 +3°C° 0 mm 3 mps 772 mmHg 62%
11:00 +4°C° 0 mm 4 mps 772 mmHg 56%
12:00 +3°C° 0 mm 5 mps 771 mmHg 55%
13:00 +4°C° 0 mm 6 mps 771 mmHg 55%
14:00 +4°C° 0 mm 7 mps 770 mmHg 54%
15:00 +3°C° 0 mm 7 mps 770 mmHg 59%
16:00 +3°C° 0 mm 7 mps 769 mmHg 64%
17:00 +1°C° 0 mm 8 mps 768 mmHg 68%
18:00 +1°C° 0 mm 8 mps 768 mmHg 72%
19:00 +1°C° 0 mm 8 mps 768 mmHg 75%
20:00 +1°C° 0 mm 8 mps 768 mmHg 78%
21:00 +1°C° 0 mm 8 mps 767 mmHg 78%
22:00 +1°C° 0 mm 8 mps 767 mmHg 78%
23:00 +2°C° 0 mm 8 mps 766 mmHg 78%

Tomorrow, 3 March, Wednesday

Time Temperature Precipitation Wind Pressure Humidity
00:00 +1°C° 0 mm 8 mps 766 mmHg 78%
01:00 +2°C° 0 mm 7 mps 766 mmHg 79%
02:00 +2°C° 0 mm 7 mps 766 mmHg 80%
03:00 +2°C° 0 mm 7 mps 766 mmHg 77%
04:00 +2°C° 0 mm 7 mps 767 mmHg 74%
05:00 +2°C° 0 mm 7 mps 767 mmHg 71%
06:00 0°C° 0 mm 7 mps 767 mmHg 73%
07:00 0°C° 0 mm 7 mps 768 mmHg 74%
08:00 0°C° 0 mm 8 mps 769 mmHg 75%
09:00 +2°C° 0 mm 7 mps 769 mmHg 68%
10:00 +3°C° 0 mm 6 mps 769 mmHg 61%
11:00 +6°C° 0 mm 5 mps 769 mmHg 54%
12:00 +6°C° 0 mm 5 mps 769 mmHg 50%
13:00 +7°C° 0 mm 5 mps 769 mmHg 47%
14:00 +8°C° 0 mm 5 mps 769 mmHg 43%
15:00 +7°C° 0 mm 4 mps 769 mmHg 45%
16:00 +7°C° 0 mm 4 mps 769 mmHg 47%
17:00 +7°C° 0 mm 4 mps 769 mmHg 48%
18:00 +7°C° 0 mm 3 mps 770 mmHg 52%
19:00 +5°C° 0 mm 3 mps 770 mmHg 56%
20:00 +4°C° 0 mm 3 mps 770 mmHg 60%
21:00 +3°C° 0 mm 3 mps 770 mmHg 61%
22:00 +4°C° 0 mm 2 mps 770 mmHg 63%
23:00 +3°C° 0 mm 2 mps 770 mmHg 65%

Day after tomorrow, 4 March, Thursday

Time Temperature Precipitation Wind Pressure Humidity
00:00 +3°C° 0 mm 2 mps 770 mmHg 67%
01:00 +2°C° 0 mm 3 mps 770 mmHg 69%
02:00 +1°C° 0 mm 3 mps 769 mmHg 71%
03:00 +1°C° 0 mm 3 mps 769 mmHg 76%
04:00 +1°C° 0 mm 3 mps 769 mmHg 81%
05:00 0°C° 0 mm 4 mps 768 mmHg 86%
06:00 +1°C° 0 mm 4 mps 768 mmHg 85%
07:00 +3°C° 0 mm 4 mps 768 mmHg 83%
08:00 +3°C° 0 mm 5 mps 768 mmHg 81%
09:00 +4°C° 0 mm 6 mps 767 mmHg 75%
10:00 +5°C° 0 mm 6 mps 767 mmHg 69%
11:00 +6°C° 0 mm 7 mps 766 mmHg 62%
12:00 +6°C° 0 mm 7 mps 765 mmHg 62%
13:00 +6°C° 0 mm 8 mps 765 mmHg 63%
14:00 +7°C° 0 mm 8 mps 764 mmHg 63%
15:00 +6°C° 0 mm 8 mps 764 mmHg 66%
16:00 +5°C° 0 mm 8 mps 763 mmHg 70%
17:00 +5°C° 0 mm 8 mps 763 mmHg 74%
18:00 +4°C° 0 mm 8 mps 763 mmHg 76%
19:00 +4°C° 0 mm 8 mps 763 mmHg 79%
20:00 +2°C° 0 mm 8 mps 763 mmHg 82%
21:00 +2°C° 0 mm 9 mps 762 mmHg 81%
22:00 +2°C° 0 mm 9 mps 762 mmHg 81%
23:00 +2°C° 0 mm 9 mps 762 mmHg 81%

5 March, Friday

Time Temperature Precipitation Wind Pressure Humidity
00:00 +2°C° 0 mm 9 mps 762 mmHg 82%
01:00 +2°C° 0 mm 8 mps 761 mmHg 82%
02:00 +2°C° 0 mm 8 mps 761 mmHg 83%
03:00 +2°C° 0 mm 8 mps 761 mmHg 85%
04:00 +3°C° 0 mm 7 mps 761 mmHg 87%
05:00 +3°C° 0 mm 7 mps 760 mmHg 89%
06:00 +2°C° 0 mm 8 mps 760 mmHg 87%
07:00 +4°C° 0 mm 8 mps 760 mmHg 85%
08:00 +5°C° 0 mm 8 mps 760 mmHg 83%
09:00 +6°C° 0 mm 8 mps 759 mmHg 80%
10:00 +7°C° 0 mm 9 mps 759 mmHg 76%
11:00 +7°C° 0 mm 9 mps 759 mmHg 73%
12:00 +8°C° 0 mm 9 mps 759 mmHg 71%
13:00 +8°C° 0 mm 9 mps 758 mmHg 70%
14:00 +8°C° 0 mm 9 mps 758 mmHg 69%
15:00 +7°C° 0 mm 9 mps 758 mmHg 72%
16:00 +7°C° 0 mm 9 mps 757 mmHg 75%
17:00 +6°C° 0 mm 8 mps 757 mmHg 79%
18:00 +6°C° 0 mm 8 mps 757 mmHg 81%
19:00 +5°C° 0 mm 8 mps 758 mmHg 84%
20:00 +5°C° 0 mm 7 mps 758 mmHg 86%
21:00 +5°C° 0 mm 7 mps 758 mmHg 86%
22:00 +4°C° 0 mm 6 mps 758 mmHg 86%
23:00 +5°C° 0 mm 5 mps 758 mmHg 86%

6 March, Saturday

Time Temperature Precipitation Wind Pressure Humidity
00:00 +5°C° 0 mm 5 mps 758 mmHg 85%
01:00 +5°C° 0 mm 4 mps 758 mmHg 83%
02:00 +5°C° 0 mm 4 mps 758 mmHg 82%
03:00 +5°C° 0 mm 4 mps 758 mmHg 83%
04:00 +4°C° 0 mm 4 mps 758 mmHg 84%
05:00 +4°C° 0 mm 4 mps 758 mmHg 86%
06:00 +3°C° 0 mm 5 mps 759 mmHg 85%
07:00 +3°C° 0 mm 7 mps 759 mmHg 85%
08:00 +2°C° 0 mm 8 mps 760 mmHg 84%
09:00 +1°C° 0.1 mm 8 mps 761 mmHg 81%
10:00 0°C° 0.1 mm 8 mps 761 mmHg 78%
11:00 -1°C° 0.1 mm 8 mps 762 mmHg 76%
12:00 0°C° 0 mm 8 mps 762 mmHg 64%
13:00 +1°C° 0 mm 8 mps 763 mmHg 53%
14:00 +2°C° 0 mm 8 mps 763 mmHg 41%
15:00 +2°C° 0 mm 8 mps 764 mmHg 40%
16:00 +1°C° 0 mm 8 mps 764 mmHg 38%
17:00 0°C° 0 mm 8 mps 765 mmHg 36%
18:00 0°C° 0 mm 7 mps 766 mmHg 38%
19:00 -1°C° 0 mm 7 mps 767 mmHg 40%
20:00 -1°C° 0 mm 6 mps 767 mmHg 42%
21:00 -2°C° 0 mm 6 mps 768 mmHg 44%
22:00 -3°C° 0 mm 6 mps 768 mmHg 47%
23:00 -4°C° 0 mm 6 mps 769 mmHg 50%

7 March, Sunday

Time Temperature Precipitation Wind Pressure Humidity
00:00 -4°C° 0 mm 5 mps 769 mmHg 51%
01:00 -4°C° 0 mm 5 mps 769 mmHg 52%
02:00 -4°C° 0 mm 5 mps 770 mmHg 53%
03:00 -4°C° 0 mm 5 mps 770 mmHg 53%
04:00 -4°C° 0 mm 5 mps 770 mmHg 52%
05:00 -5°C° 0 mm 5 mps 770 mmHg 52%
06:00 -4°C° 0 mm 6 mps 770 mmHg 50%
07:00 -3°C° 0 mm 6 mps 771 mmHg 47%
08:00 -2°C° 0 mm 7 mps 771 mmHg 45%
09:00 -1°C° 0 mm 7 mps 771 mmHg 40%
10:00 -1°C° 0 mm 7 mps 771 mmHg 36%
11:00 0°C° 0 mm 7 mps 770 mmHg 31%
12:00 0°C° 0 mm 8 mps 770 mmHg 33%
13:00 +1°C° 0 mm 8 mps 770 mmHg 35%
14:00 +1°C° 0 mm 8 mps 769 mmHg 37%
15:00 +1°C° 0 mm 8 mps 769 mmHg 38%
16:00 +1°C° 0 mm 8 mps 768 mmHg 39%
17:00 +1°C° 0 mm 8 mps 768 mmHg 40%
18:00 0°C° 0 mm 7 mps 768 mmHg 46%
19:00 -1°C° 0 mm 7 mps 768 mmHg 51%
20:00 -1°C° 0 mm 6 mps 767 mmHg 57%
21:00 -1°C° 0 mm 6 mps 767 mmHg 61%
22:00 -2°C° 0 mm 6 mps 767 mmHg 65%
23:00 -1°C° 0 mm 5 mps 767 mmHg 69%
Show more

We Need Your Consent

Meteoprog and our Service Providers may store and access personal data such as cookies, device identifiers or other similar technologies on your device and process such data to personalise content and ads, as well as provide social media features and to analyse the traffic.

  • Store and/or access information on your device

    Cookies, device identifiers or other information can be stored or accessed on your device for the purposes indicated above.

  • Personalised ads and content, ad and content measurement, audience insights, and products development

    Ads and content can be personalised based on a profile. More data can be added to better personalise ads and content. Ad and content performance can be measured. Insights about the audience who saw the ads and content can be derived. Such data can be used to develop or improve user’s experience, systems and software.

By clicking ‘I Agree’ you will allow the use of indicated cookies, device identifiers, web beacons or other similar technologies. Your settings can be changed in the browser on your device.

For certain purposes, legitimate interests may be relied on, rather than consent. You can read more about this in our Privacy and Cookie Policy.